Regional Weather Roundup
Issued by NWS

Home | Current Version | Previous Version | Graphics & Text | Print | Product List | Glossary On
Versions: 1 2 3 4 5 6 7 8 9 10 11 12 13 14 15 16 17 18 19 20 21 22 23 24 25 26 27 28 29 30 31 32 33 34 35 36 37 38 39 40 41 42 43 44 45 46 47 48 49 50
000
ASUS43 KTOP 012259
RWRKS

WEATHER ROUNDUP FOR KANSAS
NATIONAL WEATHER SERVICE GOODLAND KS
600 PM CDT WED APR 01 2015

NOTE:  "FAIR" INDICATES FEW OR NO CLOUDS BELOW 12,000 FEET WITH NO
SIGNIFICANT WEATHER AND/OR OBSTRUCTIONS TO VISIBILITY.

KSZ001>006-013>018-027>032-041>047-020000-
NORTHWEST KANSAS

CITY           SKY/WX    TMP DP  RH WIND       PRES   REMARKS
GOODLAND       MOSUNNY   77  24  14 N12       29.59S
HAYS           PTSUNNY   84  45  24 S18G29    29.52F
HILL CITY      PTSUNNY   87  33  14 SW13      29.49F
RUSSELL        MOSUNNY   85  47  26 S23G33    29.51F
$$

KSZ061>065-074>080-084>089-020000-
SOUTHWEST KANSAS

CITY           SKY/WX    TMP DP  RH WIND       PRES   REMARKS
DODGE CITY     CLOUDY    85  30  13 S13       29.56F
ELKHART          N/A     83  25  12 SW16        N/A
GARDEN CITY    CLOUDY    83  29  14 S7        29.55F
GREAT BEND     MOSUNNY   84  48  28 S23G29    29.54F
LIBERAL        PTSUNNY   86  30  13 W18G26    29.59F
$$

KSZ066>073-081>083-090>101-020000-
SOUTHEAST KANSAS

CITY           SKY/WX    TMP DP  RH WIND       PRES   REMARKS
CHANUTE        SUNNY     77  61  57 SE17      29.72F
COFFEYVILLE    SUNNY     80  57  45 S17G25    29.71F
HUTCHINSON     SUNNY     86  49  27 S28G37    29.58F
MEDICINE LODGE   N/A     86  50  28 S26G36    29.57F
NEWTON         MOSUNNY   82  54  36 S23G29    29.65S
PARSONS        SUNNY     79  55  43 S17G30    29.72F
WICHITA INTL   MOSUNNY   83  54  36 S26G33    29.62S
WICHITA JABRA  SUNNY     82  53  36 S24G36    29.63F
WINFIELD       SUNNY     82  54  37 S18G26    29.67F
$$

KSZ007>012-019>026-033>040-048>060-102>105-020000-
NORTHEAST KANSAS

CITY           SKY/WX    TMP DP  RH WIND       PRES   REMARKS
CONCORDIA      SUNNY     82  52  35 S22G32    29.55F
EMPORIA        SUNNY     77  57  50 SE20G32   29.66F
LAWRENCE       SUNNY     75  54  47 SE24G32   29.70F
MANHATTAN      SUNNY     85  47  26 S21G29    29.60F
OLATHE IND     SUNNY     69  57  65 SE21G33   29.75F
OLATHE EXE     SUNNY     70  56  61 S20G28    29.74F
SALINA         SUNNY     86  53  32 S20G32    29.55F
TOPEKA BILLARD SUNNY     77  54  44 SE24G30   29.67F
TOPEKA FORBES  SUNNY     79  53  40 S20G32    29.67F
$$



USA.gov is the U.S. government's official web portal to all federal, state and local government web resources and services.